Regional Weather Roundup
Issued by NWS

Home | Current Version | Previous Version | Graphics & Text | Print | Product List | Glossary On
Versions: 1 2 3 4 5 6 7 8 9 10 11 12 13 14 15 16 17 18 19 20 21 22 23 24 25 26 27 28 29 30 31 32 33 34 35 36 37 38 39 40 41 42 43 44 45 46 47 48 49 50
000
ASUS45 KCYS 221510
RWRWY

WYOMING REGIONAL WEATHER ROUNDUP
NATIONAL WEATHER SERVICE CHEYENNE WY
900 AM MDT THU JUN 22 2017

NOTE:  "FAIR" INDICATES FEW OR NO CLOUDS BELOW 12,000 FEET
WITH NO SIGNIFICANT WEATHER AND/OR OBSTRUCTIONS TO VISIBILITY.

WYZ001-221600-
YELLOWSTONE NATIONAL PARK

CITY           SKY/WX    TMP DP  RH WIND       PRES   REMARKS
LK YELLOWSTONE   N/A     51  25  36 VRB3      30.21F
W YELLOWSTONE  NOT AVBL

$$
WYZ002>013-054>058-071-098>099-221600-
NORTHERN WYOMING

CITY           SKY/WX    TMP DP  RH WIND       PRES   REMARKS
JACKSON        SUNNY     59  39  47 N3        30.14R
CODY           FAIR      60  37  42 N12       30.09R
GREYBULL       FAIR      70  28  21 N20       29.99R
WORLAND        FAIR      67  33  28 NW13      30.02R
SHERIDAN       FAIR      63  42  46 NW7       30.04S
BUFFALO        FAIR      60  36  40 N12G23    30.08R
GILLETTE       FAIR      61  41  47 N14       30.03R
NEWCASTLE      FAIR      64  43  45 NW16G24   29.95R

$$
WYZ014>020-022>026-101>103-221600-
CENTRAL WYOMING

CITY           SKY/WX    TMP DP  RH WIND       PRES   REMARKS
BIG PINEY      FAIR      63  37  38 CALM      30.14R
PINEDALE       FAIR      61  37  41 NW14G26   30.14S
DUBOIS         FAIR      63  30  29 N15       30.13R
LANDER         FAIR      64  30  27 CALM      30.09R
RIVERTON       FAIR      65  28  24 NE13      30.06R
CASPER         FAIR      63  36  36 NE17G23   30.07R
DOUGLAS        CLOUDY    66  40  38 NW15G22   30.04R

$$
WYZ021-027>030-104>119-221600-
SOUTHERN WYOMING

CITY           SKY/WX    TMP DP  RH WIND       PRES   REMARKS
EVANSTON       FAIR      64  48  56 SW7       30.17R
KEMMERER         N/A     63  36  36 NW8       30.16S
FORT BRIDGER   FAIR      68  32  26 NW13G18   30.18R
ROCK SPRINGS   FAIR      66  32  28 NW10      30.11S
DIXON          FAIR      69  41  36 SE5       30.10F
RAWLINS        FAIR      67  41  38 N7        30.09R
SARATOGA       FAIR      72  37  28 NW15      30.10R
LARAMIE        FAIR      69  41  36 MISG      30.08R
CHEYENNE       FAIR      69  46  43 N20G26    30.01R
TORRINGTON     FAIR      71  49  45 NW12      29.91R
PINE BLUFFS    FAIR      72  48  43 N23G32    29.95R

$$



USA.gov is the U.S. government's official web portal to all federal, state and local government web resources and services.